Flight Track Log - Related Links

Times and Time Zones

All times are in EDT time to prevent confusion due to time zone crossing. See the UAL3835 flight status page for this flight to view local times or setup timezone preferences in your user account.

Time Position Orientation Groundspeed Altitude Reporting Facility
EDT Latitude Longitude Course Direction KTS MPH feet Rate Location/Type
Sun 08:25:46 PM 43.6500 -79.6167 224° Southwest 160 184 1,500  Level Toronto Center
Sun 08:26:46 PM 43.6000 -79.6833 224° Southwest 200 230 3,600 1,900 Climbing Toronto Center
Sun 08:27:46 PM 43.5500 -79.7167 206° Southwest 240 276 5,300 1,500 Climbing Toronto Center
Sun 08:28:46 PM 43.5000 -79.6500 136° Southeast 280 322 6,600 1,300 Climbing Toronto Center
Sun 08:29:46 PM 43.5000 -79.5333 90° East 270 311 7,900 1,550 Climbing Toronto Center
Sun 08:30:46 PM 43.5000 -79.4500 90° East 280 322 9,700 1,400 Climbing Toronto Center
Sun 08:31:46 PM 43.4833 -79.3333 101° East 320 368 10,700 1,100 Climbing Toronto Center
Sun 08:32:46 PM 43.4667 -79.2000 100° East 350 403 11,900 1,400 Climbing Toronto Center
Sun 08:33:46 PM 43.4500 -79.0667 100° East 360 414 13,500 1,500 Climbing Toronto Center
Sun 08:34:46 PM 43.4167 -78.9167 107° East 360 414 14,900 1,350 Climbing Toronto Center
Sun 08:35:46 PM 43.3667 -78.8000 120° Southeast 360 414 16,200 1,174 Climbing Toronto Center
Sun 08:36:18 PM 43.3483 -78.7647 126° Southeast 355 409 16,700 1,043 Climbing Cleveland Center
Sun 08:37:18 PM 43.2903 -78.6467 124° Southeast 365 420 17,800 950 Climbing Cleveland Center
Sun 08:38:18 PM 43.2297 -78.5231 124° Southeast 378 435 18,600 950 Climbing Cleveland Center
Sun 08:39:18 PM 43.1711 -78.4028 124° Southeast 384 442 19,700 1,100 Climbing Cleveland Center
Sun 08:40:18 PM 43.1106 -78.2797 124° Southeast 390 449 20,800 1,050 Climbing Cleveland Center
Sun 08:41:18 PM 43.0475 -78.1542 124° Southeast 397 457 21,800 1,050 Climbing Cleveland Center
Sun 08:42:18 PM 42.9661 -78.0525 138° Southeast 397 457 22,900 1,050 Climbing Cleveland Center
Sun 08:43:18 PM 42.8617 -78.0397 175° South 373 429 23,900 1,000 Climbing Cleveland Center
Sun 08:44:18 PM 42.7575 -78.0467 183° South 370 426 24,900 550 Climbing Cleveland Center
Sun 08:45:18 PM 42.6450 -78.0511 182° South 388 447 25,000 -500 Climbing Cleveland Center
Sun 08:46:18 PM 42.5244 -78.0617 184° South 415 478 23,900 -1,000 Descending Cleveland Center
Sun 08:47:18 PM 42.4078 -78.0719 184° South 427 491 23,000 -450 Descending Cleveland Center
Sun 08:48:18 PM 42.2869 -78.0767 182° South 432 497 23,000  Level Cleveland Center
Sun 08:49:18 PM 42.1642 -78.0872 184° South 438 504 23,000  Level Cleveland Center
Sun 08:50:18 PM 42.0456 -78.0917 182° South 438 504 23,000 -500 Level Cleveland Center
Sun 08:51:18 PM 41.9250 -78.1019 184° South 438 504 22,000 -1,000 Descending Cleveland Center
Sun 08:52:18 PM 41.8144 -78.1064 182° South 446 513 21,000 -323 Descending Cleveland Center
Sun 08:54:24 PM 41.5564 -78.1233 183° South 445 512 21,000  Level New York Center
Sun 08:55:24 PM 41.4600 -78.1322 184° South 417 480 21,000  Level New York Center
Sun 08:56:24 PM 41.3431 -78.1358 181° South 401 461 21,000  Level New York Center
Sun 08:57:24 PM 41.2342 -78.1433 183° South 391 450 21,000  Level New York Center
Sun 08:58:24 PM 41.1283 -78.1017 163° South 383 441 21,000  Level New York Center
Sun 08:59:24 PM 41.0253 -78.0492 159° South 388 447 21,000 -450 Level New York Center
Sun 09:00:24 PM 40.9222 -77.9942 158° South 393 452 20,100 -1,400 Descending New York Center
Sun 09:01:24 PM 40.8319 -77.9050 143° Southeast 400 460 18,200 -1,050 Descending New York Center
Sun 09:02:24 PM 40.7475 -77.8167 142° Southeast 394 453 18,000 -100 Descending New York Center
Sun 09:03:24 PM 40.6469 -77.7544 155° Southeast 394 453 18,000  Level New York Center
Sun 09:04:24 PM 40.5400 -77.6944 157° South 405 466 18,000  Level New York Center
Sun 09:05:24 PM 40.4308 -77.6372 158° South 426 490 18,000  Level New York Center
Sun 09:06:24 PM 40.3258 -77.5778 157° South 426 490 18,000 -350 Level New York Center
Sun 09:07:24 PM 40.2206 -77.5211 158° South 413 475 17,300 -1,250 Descending New York Center
Sun 09:08:24 PM 40.1156 -77.4619 157° South 413 475 15,500 -1,510 Descending New York Center
Sun 09:09:55 PM 39.9833 -77.3833 156° South 398 458 13,500 -1,351 Descending Potomac TRACON
Sun 09:10:55 PM 39.8833 -77.3500 166° South 391 450 12,100 -1,450 Descending Potomac TRACON
Sun 09:11:55 PM 39.7667 -77.3500 180° South 384 442 10,600 -1,100 Descending Potomac TRACON
Sun 09:12:55 PM 39.6667 -77.3333 173° South 368 423 9,900 -650 Descending Potomac TRACON
Sun 09:13:55 PM 39.5833 -77.3500 189° South 335 386 9,300 -1,100 Descending Potomac TRACON
Sun 09:14:55 PM 39.5000 -77.3500 180° South 287 330 7,700 -1,150 Descending Potomac TRACON
Sun 09:15:55 PM 39.4333 -77.3667 191° South 277 319 7,000 -900 Descending Potomac TRACON
Sun 09:16:55 PM 39.3500 -77.3667 180° South 273 314 5,900 -1,000 Descending Potomac TRACON
Sun 09:17:49 PM 39.2667 -77.3667 180° South 268 308 5,100 -947 Descending Potomac TRACON
Sun 09:18:49 PM 39.2000 -77.3667 180° South 265 305 4,100 -500 Descending Potomac TRACON
Sun 09:19:49 PM 39.1167 -77.3500 171° South 267 307 4,100  Level Potomac TRACON
Sun 09:20:49 PM 39.0500 -77.3500 180° South 268 308 4,100 -450 Level Potomac TRACON
Sun 09:21:49 PM 38.9833 -77.3667 191° South 263 303 3,200 -500 Descending Potomac TRACON
Sun 09:22:49 PM 38.9167 -77.3667 180° South 255 293 3,100 -300 Descending Potomac TRACON
Sun 09:23:49 PM 38.8500 -77.3833 191° South 241 277 2,600 -850 Descending Potomac TRACON
Sun 09:24:49 PM 38.8833 -77.4333 311° West 175 201 1,400 -1,200 Descending Potomac TRACON

Login

Don't have an account? Register now (free) for customized features, flight alerts, and more!